User: anonymous   Login
Location: Gleizolles
(44.4833°N, 6.7667°E)
Time: 21:23:11
(UTC+00:00)
Language:

Explorer 7 - Orbit

View from above orbital plane
View from above orbital plane
View from above satellite
View from above satellite

Ground track
Ground track

The orbit data is extracted from the following two-line orbital elements,

1 00022U 59009A   24177.53415320  .00010488  00000-0  60718-3 0  9997
2 00022  50.2785  13.0752 0112636 141.8259 219.0738 15.07491240690660
Epoch (UTC): 25 June 2024 12:49:10
Eccentricity: 0.0112636
inclination: 50.2785°
perigee height: 466 km
apogee height: 622 km
right ascension of ascending node: 13.0752°
argument of perigee: 141.8259°
revolutions per day: 15.07491240
mean anomaly at epoch: 219.0738°
orbit number at epoch: 69066

The dashed part of the orbit path shows where the satellite is in the earth's shadow,  

DLR